SCP
0 0 0 0 0 0 0 0 0 0 0 0 0 0 0 0 0 0 0 0 0 0
0 0 0 0 0 0 0 0 0 0 0 0 0 0 0 0 0 0 0 0 0 0
0 0 0 0 0 0 0 0 0 0 0 0 0 0 0 0 0 0 0 0 0 0
0 0 0 0 0 0 0 0 0 0 0 0 0 0 0 0 0 0 0 0 0 0
0 0 0 0 0 0 0 0 0 0 0 0 0 0 0 0 0 0 0 0 0 0
0 0 0 0 0 0 0 0 0 0 0 0 0 0 0 0 0 0 0 0 0 0
0 0 0 0 0 0 0 0 0 0 0 0 0 0 0 0 0 0 0 0 0 0
0 0 0 0 0 0 0 0 0 0 0 0 0 0 0 0 0 0 0 0 0 0
0 0 0 0 0 0 0 0 0 0 0 0 0 0 0 0 0 0 0 -0 -0 0
0 0 0 0 0 0 0 0 0 0 0 0 0 0 0 0 0 0 0 0 -0 0
0 0 0 0 0 0 0 0 0 0 0 0 0 0 0 0 0 0 0 0 0 0
0 0 0 0 0 0 0 -0 0 0 0 0 0 0 0 0 0 0 0 0 0 0
0 0 0 0 0 0 0 -0 0 0 0 0 0 0 0 0 0 0 0 0 0 0
0 0 0 0 0 0 0 0 -0 -0 0 0 0 0 0 0 0 0 0 0 0 0
Wind_Speed_500mb
36 35 38 38 35 30 33 41 47 46 47 51 48 47 46 46 45 45 46 47 44 47
29 34 32 30 27 27 29 35 41 44 48 50 47 47 48 49 49 51 48 47 46 43
29 26 26 27 28 28 29 31 38 43 45 47 46 45 46 51 52 53 51 46 43 41
21 23 26 29 33 34 32 30 35 39 42 45 45 46 50 47 49 50 56 50 42 43
21 27 29 32 33 36 33 28 33 35 35 40 44 43 46 51 51 54 53 56 47 42
25 31 30 35 40 40 37 30 28 31 33 33 39 42 44 48 48 48 52 56 55 53
25 27 34 43 47 42 35 28 25 30 32 35 35 36 44 46 44 45 46 50 55 54
22 26 37 46 50 38 30 27 27 28 30 36 39 39 36 44 44 45 45 46 51 54
21 26 36 44 53 41 30 28 23 26 34 41 43 38 30 34 44 43 39 45 55 56
22 27 29 39 46 48 41 32 30 35 40 42 38 34 24 24 33 38 42 50 51 51
21 23 27 33 39 47 49 45 39 33 31 33 36 36 25 25 30 34 37 42 45 45
21 23 27 30 35 42 51 54 43 35 32 35 38 38 35 29 25 32 37 40 41 39
24 28 26 29 32 36 44 52 44 34 32 32 32 40 41 41 34 34 35 35 36 36
26 26 25 28 30 32 34 42 45 41 36 37 37 39 40 41 38 38 38 38 38 37
Wind_Direction_500mb
326 335 335 339 352 357 4 5 358 355 355 358 358 356 350 349 346 340 333 328 324 319
336 336 344 353 354 1 4 2 358 357 0 3 4 6 6 1 357 350 346 340 333 330
338 353 352 349 347 349 350 349 349 358 359 3 4 6 6 6 4 2 357 348 341 337
356 358 350 345 340 337 337 332 342 350 356 358 3 7 12 8 5 3 1 2 359 356
4 355 343 343 342 340 335 326 336 345 354 353 356 1 8 11 13 13 9 11 5 360
356 353 354 351 340 333 323 325 333 338 339 350 353 355 5 5 4 9 13 13 12 12
2 4 1 356 348 340 333 328 328 328 331 338 341 345 356 357 357 358 5 9 11 12
8 5 7 0 359 349 349 343 328 323 322 329 333 339 342 345 350 349 352 3 4 5
352 360 6 0 2 357 353 345 336 326 329 329 329 330 333 336 339 344 352 359 353 354
351 3 352 1 3 13 9 355 335 327 331 339 348 350 340 341 338 341 347 348 347 351
355 353 345 350 358 9 9 360 349 346 352 354 353 353 348 347 345 344 340 343 348 351
357 344 342 337 351 0 5 8 7 6 1 358 359 358 351 342 341 340 339 341 343 347
346 351 335 333 345 352 1 9 9 10 6 6 11 10 8 4 357 351 352 354 352 349
344 341 328 333 341 343 350 0 10 11 6 16 11 7 4 3 359 355 351 349 349 348
Wind_Speed_850mb
36 35 38 38 35 30 33 41 47 46 47 51 48 47 46 46 45 45 46 47 44 47
29 34 32 30 27 27 29 35 41 44 48 50 47 47 48 49 49 51 48 47 46 43
29 26 26 27 28 28 29 31 38 43 45 47 46 45 46 51 52 53 51 46 43 41
21 23 26 29 33 34 32 30 35 39 42 45 45 46 50 47 49 50 56 50 42 43
21 27 29 32 33 36 33 28 33 35 35 40 44 43 46 51 51 54 53 56 47 42
25 31 30 35 40 40 37 30 28 31 33 33 39 42 44 48 48 48 52 56 55 53
25 27 34 43 47 42 35 28 25 30 32 35 35 36 44 46 44 45 46 50 55 54
22 26 37 46 50 38 30 27 27 28 30 36 39 39 36 44 44 45 45 46 51 54
21 26 36 44 53 41 30 28 23 26 34 41 43 38 30 34 44 43 39 45 55 56
22 27 29 39 46 48 41 32 30 35 40 42 38 34 24 24 33 38 42 50 51 51
21 23 27 33 39 47 49 45 39 33 31 33 36 36 25 25 30 34 37 42 45 45
21 23 27 30 35 42 51 54 43 35 32 35 38 38 35 29 25 32 37 40 41 39
24 28 26 29 32 36 44 52 44 34 32 32 32 40 41 41 34 34 35 35 36 36
26 26 25 28 30 32 34 42 45 41 36 37 37 39 40 41 38 38 38 38 38 37
Wind_Direction_850mb
326 335 335 339 352 357 4 5 358 355 355 358 358 356 350 349 346 340 333 328 324 319
336 336 344 353 354 1 4 2 358 357 0 3 4 6 6 1 357 350 346 340 333 330
338 353 352 349 347 349 350 349 349 358 359 3 4 6 6 6 4 2 357 348 341 337
356 358 350 345 340 337 337 332 342 350 356 358 3 7 12 8 5 3 1 2 359 356
4 355 343 343 342 340 335 326 336 345 354 353 356 1 8 11 13 13 9 11 5 360
356 353 354 351 340 333 323 325 333 338 339 350 353 355 5 5 4 9 13 13 12 12
2 4 1 356 348 340 333 328 328 328 331 338 341 345 356 357 357 358 5 9 11 12
8 5 7 0 359 349 349 343 328 323 322 329 333 339 342 345 350 349 352 3 4 5
352 360 6 0 2 357 353 345 336 326 329 329 329 330 333 336 339 344 352 359 353 354
351 3 352 1 3 13 9 355 335 327 331 339 348 350 340 341 338 341 347 348 347 351
355 353 345 350 358 9 9 360 349 346 352 354 353 353 348 347 345 344 340 343 348 351
357 344 342 337 351 0 5 8 7 6 1 358 359 358 351 342 341 340 339 341 343 347
346 351 335 333 345 352 1 9 9 10 6 6 11 10 8 4 357 351 352 354 352 349
344 341 328 333 341 343 350 0 10 11 6 16 11 7 4 3 359 355 351 349 349 348